{"data":{"norad_id":40364,"epoch":"2026-05-25T03:52:38.992224Z","epoch_age_seconds":61065,"freshness":"FRESH","line1":"1 40364U 14089A   26145.16156241  .00000147  00000+0  00000+0 0  9993","line2":"2 40364   0.0560  23.3396 0004921  35.1727 270.5904  1.00271733 41733","mean_motion":1.00271733,"eccentricity":0.0004921,"inclination_deg":0.056,"raan_deg":23.3396,"arg_perigee_deg":35.1727,"mean_anomaly_deg":270.5904,"bstar":0,"rev_number":4173,"period_min":1436.0976487761,"perigee_km":35765.860266913,"apogee_km":35807.358810456,"semimajor_km":42164.746538685,"source":"CELESTRAK","updated_at":"2026-05-25T13:38:14.511554Z"}}